Location: Pine Mountain Observatory
(43.7910°N, 120.9377°W)
Time: 08:19:16
(UTC-07:00)

Vanguard 1 - All Passes

Search period start: 20 May 2019 00:00
Search period end: 30 May 2019 00:00
Orbit: 653 x 3830 km, 34.2° (Epoch: 19 May)

Date Brightness Start Highest point End Pass type
(mag) Time Alt. Az. Time Alt. Az. Time Alt. Az.
20 May - 12:44:46 10° SSW 12:48:58 23° SSE 12:54:53 10° E daylight
20 May - 15:02:08 10° WSW 15:08:33 46° S 15:19:53 10° ESE daylight
20 May - 17:21:12 10° W 17:29:53 42° SSW 17:45:00 10° SE daylight
20 May - 19:42:36 10° WSW 19:52:31 25° SSW 20:06:39 10° SSE daylight
21 May - 13:04:57 10° SW 13:09:34 29° SSE 13:16:26 10° E daylight
21 May - 15:22:53 10° WSW 15:29:28 46° S 15:41:11 10° ESE daylight
21 May - 17:42:16 10° W 17:50:59 37° SSW 18:05:38 10° SE daylight
21 May - 20:04:58 10° WSW 20:13:39 19° SSW 20:25:06 10° S daylight
22 May - 13:25:23 10° SW 13:30:16 34° SSE 13:37:48 10° ESE daylight
22 May - 15:43:42 10° WSW 15:50:27 44° S 16:02:21 10° ESE daylight
22 May - 18:03:30 10° WSW 18:12:06 31° SSW 18:25:53 10° SSE daylight
22 May - 20:28:50 10° WSW 20:34:47 13° SW 20:41:51 10° SSW daylight
23 May - 11:29:33 10° S 11:32:01 14° SSE 11:34:50 10° ESE daylight
23 May - 13:45:58 10° SW 13:51:02 37° SSE 13:59:07 10° ESE daylight
23 May - 16:04:35 10° WSW 16:11:26 40° S 16:23:21 10° SE daylight
23 May - 18:25:01 10° WSW 18:33:14 25° SSW 18:45:38 10° SSE daylight
24 May - 11:49:14 10° SSW 11:52:35 19° SSE 11:56:43 10° ESE daylight
24 May - 14:06:38 10° WSW 14:11:52 39° S 14:20:21 10° ESE daylight
24 May - 16:25:34 10° WSW 16:32:29 35° SSW 16:44:08 10° SE daylight
24 May - 18:46:58 10° WSW 18:54:23 20° SSW 19:04:41 10° S daylight
25 May - 12:09:24 10° SSW 12:13:13 24° SSE 12:18:11 10° ESE daylight
25 May - 14:27:24 10° WSW 14:32:45 39° S 14:41:30 10° ESE daylight
25 May - 16:46:41 10° WSW 16:53:32 30° SSW 17:04:37 10° SE daylight
25 May - 19:09:58 10° WSW 19:15:32 14° SSW 19:22:27 10° S daylight
26 May - 12:29:51 10° SW 12:33:56 29° SSE 12:39:28 10° ESE daylight
26 May - 14:48:14 10° WSW 14:53:40 36° S 15:02:31 10° ESE daylight
26 May - 17:08:01 10° WSW 17:14:37 25° SSW 17:24:40 10° SSE daylight
27 May - 10:33:44 10° S 10:35:38 12° SSE 10:37:36 10° SE daylight
27 May - 12:50:27 10° SW 12:54:41 32° S 13:00:39 10° ESE daylight
27 May - 15:09:09 10° WSW 15:14:37 33° S 15:23:22 10° SE daylight
27 May - 17:29:45 10° WSW 17:35:43 19° SSW 17:44:07 10° SSE daylight
28 May - 10:53:23 10° SSW 10:56:18 17° SSE 10:59:28 10° ESE daylight
28 May - 13:11:10 10° WSW 13:15:31 33° S 13:21:44 10° ESE daylight
28 May - 15:30:12 10° WSW 15:35:36 28° SSW 15:43:58 10° SE daylight
28 May - 17:52:20 10° SW 17:56:50 14° SSW 18:02:30 10° S daylight
29 May - 11:13:36 10° SW 11:17:00 21° SSE 11:20:50 10° ESE daylight
29 May - 13:31:57 10° WSW 13:36:22 32° S 13:42:43 10° ESE daylight
29 May - 15:51:26 10° WSW 15:56:36 23° SSW 16:04:13 10° SSE daylight
